User: anonymous   Login
Location: Unspecified
(0.0000°N, 0.0000°E)
Time: 23:04:05
(UTC+00:00)
Language:

OBJECT D - Orbit

View from above orbital plane
View from above orbital plane
View from above satellite
View from above satellite

Ground track
Ground track

The orbit is defined by the following mean orbital elements,

1 61241U          26145.59512433 +.00000000 +00000-0 +25978-3 0 00001
2 61241  97.4385 157.0256 0010285 316.8901  43.1532 15.29258407    03
Epoch (UTC): 25 May 2026 14:16:58
Eccentricity: 0.0010285
inclination: 97.4385°
perigee height: 471 km
apogee height: 485 km
right ascension of ascending node: 157.0256°
argument of perigee: 316.8901°
revolutions per day: 15.29258407
mean anomaly at epoch: 43.1532°

The dashed part of the orbit path shows where the satellite is in the earth's shadow,  

DLR